Year,Month,Day,Hour,Minute,Value (Times are PST for temperature in C)
2017,09,04,00,00,19.20
2017,09,04,00,01,19.20
2017,09,04,00,02,19.20
2017,09,04,00,03,19.10
2017,09,04,00,04,19.10
2017,09,04,00,05,19.10
2017,09,04,00,06,19.10
2017,09,04,00,07,19.10
2017,09,04,00,08,19.10
2017,09,04,00,09,19.00
2017,09,04,00,10,19.00
2017,09,04,00,11,19.00
2017,09,04,00,12,19.00
2017,09,04,00,13,19.00
2017,09,04,00,14,18.90
2017,09,04,00,15,18.90
2017,09,04,00,16,18.90
2017,09,04,00,17,18.90
2017,09,04,00,18,18.90
2017,09,04,00,19,18.90
2017,09,04,00,20,18.80
2017,09,04,00,21,18.80
2017,09,04,00,22,18.80
2017,09,04,00,23,18.80
2017,09,04,00,24,18.80
2017,09,04,00,25,18.80
2017,09,04,00,26,18.70
2017,09,04,00,27,18.70
2017,09,04,00,28,18.70
2017,09,04,00,29,18.60
2017,09,04,00,30,18.60
2017,09,04,00,31,18.60
2017,09,04,00,32,18.60
2017,09,04,00,33,18.60
2017,09,04,00,34,18.60
2017,09,04,00,35,18.60
2017,09,04,00,36,18.60
2017,09,04,00,37,18.50
2017,09,04,00,38,18.50
2017,09,04,00,39,18.50
2017,09,04,00,40,18.40
2017,09,04,00,41,18.40
2017,09,04,00,42,18.40
2017,09,04,00,43,18.40
2017,09,04,00,44,18.40
2017,09,04,00,45,18.30
2017,09,04,00,46,18.30
2017,09,04,00,47,18.30
2017,09,04,00,48,18.20
2017,09,04,00,49,18.20
2017,09,04,00,50,18.20
2017,09,04,00,51,18.10
2017,09,04,00,52,18.10
2017,09,04,00,53,18.10
2017,09,04,00,54,18.00
2017,09,04,00,55,18.00
2017,09,04,00,56,18.00
2017,09,04,00,57,18.00
2017,09,04,00,58,17.90
2017,09,04,00,59,17.90
2017,09,04,01,00,17.90
2017,09,04,01,01,17.90
2017,09,04,01,02,17.90
2017,09,04,01,03,17.90
2017,09,04,01,04,17.90
2017,09,04,01,05,17.90
2017,09,04,01,06,18.00
2017,09,04,01,07,18.00
2017,09,04,01,08,18.00
2017,09,04,01,09,18.00
2017,09,04,01,10,18.00
2017,09,04,01,11,18.00
2017,09,04,01,12,18.00
2017,09,04,01,13,18.00
2017,09,04,01,14,18.00
2017,09,04,01,15,18.00
2017,09,04,01,16,18.00
2017,09,04,01,17,18.00
2017,09,04,01,18,18.00
2017,09,04,01,19,17.90
2017,09,04,01,20,17.90
2017,09,04,01,21,17.90
2017,09,04,01,22,17.90
2017,09,04,01,23,17.90
2017,09,04,01,24,17.90
2017,09,04,01,25,17.90
2017,09,04,01,26,17.90
2017,09,04,01,27,17.90
2017,09,04,01,28,17.80
2017,09,04,01,29,17.80
2017,09,04,01,30,17.80
2017,09,04,01,31,17.80
2017,09,04,01,32,17.80
2017,09,04,01,33,17.80
2017,09,04,01,34,17.80
2017,09,04,01,35,17.80
2017,09,04,01,36,17.80
2017,09,04,01,37,17.80
2017,09,04,01,38,17.80
2017,09,04,01,39,17.80
2017,09,04,01,40,17.80
2017,09,04,01,41,17.80
2017,09,04,01,42,17.80
2017,09,04,01,43,17.80
2017,09,04,01,44,17.80
2017,09,04,01,45,17.80
2017,09,04,01,46,17.70
2017,09,04,01,47,17.70
2017,09,04,01,48,17.70
2017,09,04,01,49,17.70
2017,09,04,01,50,17.70
2017,09,04,01,51,17.60
2017,09,04,01,52,17.60
2017,09,04,01,53,17.60
2017,09,04,01,54,17.60
2017,09,04,01,55,17.50
2017,09,04,01,56,17.50
2017,09,04,01,57,17.40
2017,09,04,01,58,17.40
2017,09,04,01,59,17.40
2017,09,04,02,00,17.40
2017,09,04,02,01,17.30
2017,09,04,02,02,17.30
2017,09,04,02,03,17.30
2017,09,04,02,04,17.30
2017,09,04,02,05,17.30
2017,09,04,02,06,17.30
2017,09,04,02,07,17.30
2017,09,04,02,08,17.30
2017,09,04,02,09,17.20
2017,09,04,02,10,17.20
2017,09,04,02,11,17.20
2017,09,04,02,12,17.20
2017,09,04,02,13,17.20
2017,09,04,02,14,17.20
2017,09,04,02,15,17.10
2017,09,04,02,16,17.10
2017,09,04,02,17,17.10
2017,09,04,02,18,17.10
2017,09,04,02,19,17.10
2017,09,04,02,20,17.10
2017,09,04,02,21,17.10
2017,09,04,02,22,17.20
2017,09,04,02,23,17.20
2017,09,04,02,24,17.20
2017,09,04,02,25,17.20
2017,09,04,02,26,17.20
2017,09,04,02,27,17.10
2017,09,04,02,28,17.10
2017,09,04,02,29,17.10
2017,09,04,02,30,17.10
2017,09,04,02,31,17.10
2017,09,04,02,32,17.00
2017,09,04,02,33,17.00
2017,09,04,02,34,17.00
2017,09,04,02,35,16.90
2017,09,04,02,36,16.90
2017,09,04,02,37,16.90
2017,09,04,02,38,16.80
2017,09,04,02,39,16.80
2017,09,04,02,40,16.80
2017,09,04,02,41,16.80
2017,09,04,02,42,16.70
2017,09,04,02,43,16.70
2017,09,04,02,44,16.70
2017,09,04,02,45,16.70
2017,09,04,02,46,16.70
2017,09,04,02,47,16.80
2017,09,04,02,48,16.80
2017,09,04,02,49,16.80
2017,09,04,02,50,16.80
2017,09,04,02,51,16.80
2017,09,04,02,52,16.80
2017,09,04,02,53,16.90
2017,09,04,02,54,16.90
2017,09,04,02,55,16.90
2017,09,04,02,56,16.90
2017,09,04,02,57,16.90
2017,09,04,02,58,16.80
2017,09,04,02,59,16.80
2017,09,04,03,00,16.80
2017,09,04,03,01,16.80
2017,09,04,03,02,16.80
2017,09,04,03,03,16.80
2017,09,04,03,04,16.80
2017,09,04,03,05,16.80
2017,09,04,03,06,16.80
2017,09,04,03,07,16.70
2017,09,04,03,08,16.70
2017,09,04,03,09,16.70
2017,09,04,03,10,16.70
2017,09,04,03,11,16.70
2017,09,04,03,12,16.70
2017,09,04,03,13,16.70
2017,09,04,03,14,16.70
2017,09,04,03,15,16.60
2017,09,04,03,16,16.60
2017,09,04,03,17,16.60
2017,09,04,03,18,16.60
2017,09,04,03,19,16.50
2017,09,04,03,20,16.60
2017,09,04,03,21,16.60
2017,09,04,03,22,16.60
2017,09,04,03,23,16.60
2017,09,04,03,24,16.60
2017,09,04,03,25,16.60
2017,09,04,03,26,16.60
2017,09,04,03,27,16.60
2017,09,04,03,28,16.60
2017,09,04,03,29,16.60
2017,09,04,03,30,16.70
2017,09,04,03,31,16.70
2017,09,04,03,32,16.80
2017,09,04,03,33,16.80
2017,09,04,03,34,16.80
2017,09,04,03,35,16.80
2017,09,04,03,36,16.80
2017,09,04,03,37,16.80
2017,09,04,03,38,16.80
2017,09,04,03,39,16.90
2017,09,04,03,40,16.90
2017,09,04,03,41,16.90
2017,09,04,03,42,16.90
2017,09,04,03,43,16.90
2017,09,04,03,44,16.90
2017,09,04,03,45,16.90
2017,09,04,03,46,16.90
2017,09,04,03,47,16.90
2017,09,04,03,48,16.90
2017,09,04,03,49,16.90
2017,09,04,03,50,16.90
2017,09,04,03,51,16.90
2017,09,04,03,52,16.90
2017,09,04,03,53,16.90
2017,09,04,03,54,16.90
2017,09,04,03,55,17.00
2017,09,04,03,56,17.00
2017,09,04,03,57,17.00
2017,09,04,03,58,17.00
2017,09,04,03,59,17.00
2017,09,04,04,00,17.10
2017,09,04,04,01,17.10
2017,09,04,04,02,17.10
2017,09,04,04,03,17.10
2017,09,04,04,04,17.10
2017,09,04,04,05,17.10
2017,09,04,04,06,17.10
2017,09,04,04,07,17.10
2017,09,04,04,08,17.10
2017,09,04,04,09,17.10
2017,09,04,04,10,17.10
2017,09,04,04,11,17.10
2017,09,04,04,12,17.10
2017,09,04,04,13,17.10
2017,09,04,04,14,17.10
2017,09,04,04,15,17.10
2017,09,04,04,16,17.10
2017,09,04,04,17,17.10
2017,09,04,04,18,17.10
2017,09,04,04,19,17.10
2017,09,04,04,20,17.10
2017,09,04,04,21,17.10
2017,09,04,04,22,17.10
2017,09,04,04,23,17.10
2017,09,04,04,24,17.10
2017,09,04,04,25,17.10
2017,09,04,04,26,17.10
2017,09,04,04,27,17.00
2017,09,04,04,28,17.00
2017,09,04,04,29,17.00
2017,09,04,04,30,16.90
2017,09,04,04,31,16.90
2017,09,04,04,32,16.90
2017,09,04,04,33,16.90
2017,09,04,04,34,16.90
2017,09,04,04,35,16.90
2017,09,04,04,36,17.00
2017,09,04,04,37,17.00
2017,09,04,04,38,17.10
2017,09,04,04,39,17.10
2017,09,04,04,40,17.10
2017,09,04,04,41,17.20
2017,09,04,04,42,17.20
2017,09,04,04,43,17.20
2017,09,04,04,44,17.20
2017,09,04,04,45,17.30
2017,09,04,04,46,17.30
2017,09,04,04,47,17.30
2017,09,04,04,48,17.30
2017,09,04,04,49,17.30
2017,09,04,04,50,17.40
2017,09,04,04,51,17.40
2017,09,04,04,52,17.40
2017,09,04,04,53,17.40
2017,09,04,04,54,17.50
2017,09,04,04,55,17.50
2017,09,04,04,56,17.50
2017,09,04,04,57,17.60
2017,09,04,04,58,17.60
2017,09,04,04,59,17.60
2017,09,04,05,00,17.60
2017,09,04,05,01,17.60
2017,09,04,05,02,17.60
2017,09,04,05,03,17.60
2017,09,04,05,04,17.60
2017,09,04,05,05,17.70
2017,09,04,05,06,17.70
2017,09,04,05,07,17.70
2017,09,04,05,08,17.70
2017,09,04,05,09,17.70
2017,09,04,05,10,17.70
2017,09,04,05,11,17.60
2017,09,04,05,12,17.60
2017,09,04,05,13,17.60
2017,09,04,05,14,17.50
2017,09,04,05,15,17.50
2017,09,04,05,16,17.40
2017,09,04,05,17,17.40
2017,09,04,05,18,17.30
2017,09,04,05,19,17.30
2017,09,04,05,20,17.30
2017,09,04,05,21,17.20
2017,09,04,05,22,17.20
2017,09,04,05,23,17.20
2017,09,04,05,24,17.10
2017,09,04,05,25,17.10
2017,09,04,05,26,17.00
2017,09,04,05,27,17.00
2017,09,04,05,28,17.00
2017,09,04,05,29,16.90
2017,09,04,05,30,16.90
2017,09,04,05,31,16.90
2017,09,04,05,32,16.90
2017,09,04,05,33,16.90
2017,09,04,05,34,16.90
2017,09,04,05,35,16.90
2017,09,04,05,36,16.90
2017,09,04,05,37,17.00
2017,09,04,05,38,17.00
2017,09,04,05,39,17.00
2017,09,04,05,40,17.00
2017,09,04,05,41,17.00
2017,09,04,05,42,17.00
2017,09,04,05,43,17.00
2017,09,04,05,44,17.10
2017,09,04,05,45,17.10
2017,09,04,05,46,17.10
2017,09,04,05,47,17.10
2017,09,04,05,48,17.10
2017,09,04,05,49,17.10
2017,09,04,05,50,17.10
2017,09,04,05,51,17.10
2017,09,04,05,52,17.10
2017,09,04,05,53,17.10
2017,09,04,05,54,17.00
2017,09,04,05,55,17.00
2017,09,04,05,56,16.90
2017,09,04,05,57,16.90
2017,09,04,05,58,16.90
2017,09,04,05,59,16.90
2017,09,04,06,00,16.90
2017,09,04,06,01,16.90
2017,09,04,06,02,16.90
2017,09,04,06,03,16.90
2017,09,04,06,04,16.80
2017,09,04,06,05,16.80
2017,09,04,06,06,16.80
2017,09,04,06,07,16.80
2017,09,04,06,08,16.80
2017,09,04,06,09,16.80
2017,09,04,06,10,16.70
2017,09,04,06,11,16.70
2017,09,04,06,12,16.70
2017,09,04,06,13,16.70
2017,09,04,06,14,16.70
2017,09,04,06,15,16.70
2017,09,04,06,16,16.70
2017,09,04,06,17,16.70
2017,09,04,06,18,16.70
2017,09,04,06,19,16.70
2017,09,04,06,20,16.70
2017,09,04,06,21,16.70
2017,09,04,06,22,16.60
2017,09,04,06,23,16.60
2017,09,04,06,24,16.60
2017,09,04,06,25,16.50
2017,09,04,06,26,16.50
2017,09,04,06,27,16.50
2017,09,04,06,28,16.50
2017,09,04,06,29,16.40
2017,09,04,06,30,16.40
2017,09,04,06,31,16.40
2017,09,04,06,32,16.40
2017,09,04,06,33,16.40
2017,09,04,06,34,16.30
2017,09,04,06,35,16.30
2017,09,04,06,36,16.30
2017,09,04,06,37,16.30
2017,09,04,06,38,16.30
2017,09,04,06,39,16.30
2017,09,04,06,40,16.30
2017,09,04,06,41,16.30
2017,09,04,06,42,16.30
2017,09,04,06,43,16.40
2017,09,04,06,44,16.40
2017,09,04,06,45,16.50
2017,09,04,06,46,16.50
2017,09,04,06,47,16.50
2017,09,04,06,48,16.60
2017,09,04,06,49,16.60
2017,09,04,06,50,16.60
2017,09,04,06,51,16.60
2017,09,04,06,52,16.60
2017,09,04,06,53,16.60
2017,09,04,06,54,16.60
2017,09,04,06,55,16.60
2017,09,04,06,56,16.60
2017,09,04,06,57,16.60
2017,09,04,06,58,16.60
2017,09,04,06,59,16.60
2017,09,04,07,00,16.60
2017,09,04,07,01,16.60
2017,09,04,07,02,16.70
2017,09,04,07,03,16.70
2017,09,04,07,04,16.70
2017,09,04,07,05,16.80
2017,09,04,07,06,16.80
2017,09,04,07,07,16.80
2017,09,04,07,08,16.90
2017,09,04,07,09,16.90
2017,09,04,07,10,17.00
2017,09,04,07,11,17.10
2017,09,04,07,12,17.10
2017,09,04,07,13,17.10
2017,09,04,07,14,17.20
2017,09,04,07,15,17.20
2017,09,04,07,16,17.20
2017,09,04,07,17,17.30
2017,09,04,07,18,17.30
2017,09,04,07,19,17.30
2017,09,04,07,20,17.30
2017,09,04,07,21,17.40
2017,09,04,07,22,17.40
2017,09,04,07,23,17.40
2017,09,04,07,24,17.50
2017,09,04,07,25,17.50
2017,09,04,07,26,17.60
2017,09,04,07,27,17.70
2017,09,04,07,28,17.70
2017,09,04,07,29,17.80
2017,09,04,07,30,17.80
2017,09,04,07,31,17.90
2017,09,04,07,32,17.90
2017,09,04,07,33,17.90
2017,09,04,07,34,18.00
2017,09,04,07,35,18.00
2017,09,04,07,36,18.00
2017,09,04,07,37,18.10
2017,09,04,07,38,18.10
2017,09,04,07,39,18.10
2017,09,04,07,40,18.20
2017,09,04,07,41,18.20
2017,09,04,07,42,18.30
2017,09,04,07,43,18.30
2017,09,04,07,44,18.40
2017,09,04,07,45,18.50
2017,09,04,07,46,18.60
2017,09,04,07,47,18.70
2017,09,04,07,48,18.80
2017,09,04,07,49,18.80
2017,09,04,07,50,18.90
2017,09,04,07,51,18.90
2017,09,04,07,52,19.00
2017,09,04,07,53,19.00
2017,09,04,07,54,19.10
2017,09,04,07,55,19.10
2017,09,04,07,56,19.20
2017,09,04,07,57,19.20
2017,09,04,07,58,19.30
2017,09,04,07,59,19.30
2017,09,04,08,00,19.30
2017,09,04,08,01,19.40
2017,09,04,08,02,19.40
2017,09,04,08,03,19.40
2017,09,04,08,04,19.40
2017,09,04,08,05,19.40
2017,09,04,08,06,19.40
2017,09,04,08,07,19.40
2017,09,04,08,08,19.40
2017,09,04,08,09,19.40
2017,09,04,08,10,19.40
2017,09,04,08,11,19.40
2017,09,04,08,12,19.30
2017,09,04,08,13,19.30
2017,09,04,08,14,19.30
2017,09,04,08,15,19.30
2017,09,04,08,16,19.40
2017,09,04,08,17,19.40
2017,09,04,08,18,19.40
2017,09,04,08,19,19.40
2017,09,04,08,20,19.40
2017,09,04,08,21,19.40
2017,09,04,08,22,19.40
2017,09,04,08,23,19.40
2017,09,04,08,24,19.40
2017,09,04,08,25,19.40
2017,09,04,08,26,19.40
2017,09,04,08,27,19.40
2017,09,04,08,28,19.50
2017,09,04,08,29,19.50
2017,09,04,08,30,19.60
2017,09,04,08,31,19.60
2017,09,04,08,32,19.60
2017,09,04,08,33,19.70
2017,09,04,08,34,19.80
2017,09,04,08,35,19.80
2017,09,04,08,36,19.90
2017,09,04,08,37,20.00
2017,09,04,08,38,20.10
2017,09,04,08,39,20.30
2017,09,04,08,40,20.50
2017,09,04,08,41,20.70
2017,09,04,08,42,20.90
2017,09,04,08,43,21.00
2017,09,04,08,44,21.10
2017,09,04,08,45,21.20
2017,09,04,08,46,21.30
2017,09,04,08,47,21.40
2017,09,04,08,48,21.50
2017,09,04,08,49,21.60
2017,09,04,08,50,21.70
2017,09,04,08,51,21.80
2017,09,04,08,52,21.80
2017,09,04,08,53,21.90
2017,09,04,08,54,22.00
2017,09,04,08,55,22.20
2017,09,04,08,56,22.30
2017,09,04,08,57,22.50
2017,09,04,08,58,22.60
2017,09,04,08,59,22.80
2017,09,04,09,00,23.00
2017,09,04,09,01,23.10
2017,09,04,09,02,23.20
2017,09,04,09,03,23.30
2017,09,04,09,04,23.40
2017,09,04,09,05,23.50
2017,09,04,09,06,23.60
2017,09,04,09,07,23.60
2017,09,04,09,08,23.70
2017,09,04,09,09,23.80
2017,09,04,09,10,23.80
2017,09,04,09,11,23.90
2017,09,04,09,12,24.00
2017,09,04,09,13,24.00
2017,09,04,09,14,24.10
2017,09,04,09,15,24.20
2017,09,04,09,16,24.20
2017,09,04,09,17,24.20
2017,09,04,09,18,24.30
2017,09,04,09,19,24.30
2017,09,04,09,20,24.40
2017,09,04,09,21,24.40
2017,09,04,09,22,24.50
2017,09,04,09,23,24.50
2017,09,04,09,24,24.50
2017,09,04,09,25,24.50
2017,09,04,09,26,24.60
2017,09,04,09,27,24.60
2017,09,04,09,28,24.60
2017,09,04,09,29,24.60
2017,09,04,09,30,24.60
2017,09,04,09,31,24.60
2017,09,04,09,32,24.60
2017,09,04,09,33,24.60
2017,09,04,09,34,24.60
2017,09,04,09,35,24.60
2017,09,04,09,36,24.60
2017,09,04,09,37,24.60
2017,09,04,09,38,24.60
2017,09,04,09,39,24.70
2017,09,04,09,40,24.70
2017,09,04,09,41,24.70
2017,09,04,09,42,24.80
2017,09,04,09,43,24.80
2017,09,04,09,44,24.80
2017,09,04,09,45,24.90
2017,09,04,09,46,24.90
2017,09,04,09,47,25.00
2017,09,04,09,48,25.00
2017,09,04,09,49,25.10
2017,09,04,09,50,25.10
2017,09,04,09,51,25.10
2017,09,04,09,52,25.20
2017,09,04,09,53,25.20
2017,09,04,09,54,25.10
2017,09,04,09,55,25.10
2017,09,04,09,56,25.20
2017,09,04,09,57,25.20
2017,09,04,09,58,25.10
2017,09,04,09,59,25.20
2017,09,04,10,00,25.20
2017,09,04,10,01,25.20
2017,09,04,10,02,25.20
2017,09,04,10,03,25.30
2017,09,04,10,04,25.30
2017,09,04,10,05,25.40
2017,09,04,10,06,25.40
2017,09,04,10,07,25.50
2017,09,04,10,08,25.50
2017,09,04,10,09,25.60
2017,09,04,10,10,25.60
2017,09,04,10,11,25.60
2017,09,04,10,12,25.70
2017,09,04,10,13,25.70
2017,09,04,10,14,25.70
2017,09,04,10,15,25.80
2017,09,04,10,16,25.80
2017,09,04,10,17,25.80
2017,09,04,10,18,25.80
2017,09,04,10,19,25.90
2017,09,04,10,20,25.90
2017,09,04,10,21,26.00
2017,09,04,10,22,26.00
2017,09,04,10,23,26.10
2017,09,04,10,24,26.10
2017,09,04,10,25,26.20
2017,09,04,10,26,26.20
2017,09,04,10,27,26.20
2017,09,04,10,28,26.20
2017,09,04,10,29,26.20
2017,09,04,10,30,26.30
2017,09,04,10,31,26.30
2017,09,04,10,32,26.40
2017,09,04,10,33,26.40
2017,09,04,10,34,26.50
2017,09,04,10,35,26.50
2017,09,04,10,36,26.60
2017,09,04,10,37,26.70
2017,09,04,10,38,26.70
2017,09,04,10,39,26.70
2017,09,04,10,40,26.80
2017,09,04,10,41,26.90
2017,09,04,10,42,26.90
2017,09,04,10,43,26.90
2017,09,04,10,44,27.00
2017,09,04,10,45,27.00
2017,09,04,10,46,27.10
2017,09,04,10,47,27.10
2017,09,04,10,48,27.10
2017,09,04,10,49,27.10
2017,09,04,10,50,27.10
2017,09,04,10,51,27.10
2017,09,04,10,52,27.20
2017,09,04,10,53,27.20
2017,09,04,10,54,27.20
2017,09,04,10,55,27.30
2017,09,04,10,56,27.40
2017,09,04,10,57,27.40
2017,09,04,10,58,27.50
2017,09,04,10,59,27.50
2017,09,04,11,00,27.60
2017,09,04,11,01,27.70
2017,09,04,11,02,27.70
2017,09,04,11,03,27.70
2017,09,04,11,04,27.80
2017,09,04,11,05,27.80
2017,09,04,11,06,27.80
2017,09,04,11,07,27.80
2017,09,04,11,08,27.80
2017,09,04,11,09,27.80
2017,09,04,11,10,27.80
2017,09,04,11,11,27.80
2017,09,04,11,12,27.70
2017,09,04,11,13,27.70
2017,09,04,11,14,27.70
2017,09,04,11,15,27.70
2017,09,04,11,16,27.70
2017,09,04,11,17,27.70
2017,09,04,11,18,27.70
2017,09,04,11,19,27.70
2017,09,04,11,20,27.70
2017,09,04,11,21,27.80
2017,09,04,11,22,27.80
2017,09,04,11,23,27.90
2017,09,04,11,24,27.90
2017,09,04,11,25,27.90
2017,09,04,11,26,27.90
2017,09,04,11,27,28.00
2017,09,04,11,28,28.10
2017,09,04,11,29,28.10
2017,09,04,11,30,28.20
2017,09,04,11,31,28.30
2017,09,04,11,32,28.40
2017,09,04,11,33,28.50
2017,09,04,11,34,28.60
2017,09,04,11,35,28.80
2017,09,04,11,36,28.90
2017,09,04,11,37,29.00
2017,09,04,11,38,29.10
2017,09,04,11,39,29.20
2017,09,04,11,40,29.20
2017,09,04,11,41,29.30
2017,09,04,11,42,29.40
2017,09,04,11,43,29.50
2017,09,04,11,44,29.50
2017,09,04,11,45,29.40
2017,09,04,11,46,29.40
2017,09,04,11,47,29.40
2017,09,04,11,48,29.40
2017,09,04,11,49,29.40
2017,09,04,11,50,29.40
2017,09,04,11,51,29.30
2017,09,04,11,52,29.30
2017,09,04,11,53,29.30
2017,09,04,11,54,29.30
2017,09,04,11,55,29.30
2017,09,04,11,56,29.20
2017,09,04,11,57,29.10
2017,09,04,11,58,29.10
2017,09,04,11,59,29.10
2017,09,04,12,00,29.10
2017,09,04,12,01,29.20
2017,09,04,12,02,29.30
2017,09,04,12,03,29.40
2017,09,04,12,04,29.50
2017,09,04,12,05,29.60
2017,09,04,12,06,29.50
2017,09,04,12,07,29.40
2017,09,04,12,08,29.30
2017,09,04,12,09,29.20
2017,09,04,12,10,29.10
2017,09,04,12,11,29.10
2017,09,04,12,12,29.20
2017,09,04,12,13,29.30
2017,09,04,12,14,29.30
2017,09,04,12,15,29.40
2017,09,04,12,16,29.50
2017,09,04,12,17,29.50
2017,09,04,12,18,29.50
2017,09,04,12,19,29.60
2017,09,04,12,20,29.70
2017,09,04,12,21,29.70
2017,09,04,12,22,29.50
2017,09,04,12,23,29.30
2017,09,04,12,24,29.10
2017,09,04,12,25,29.00
2017,09,04,12,26,29.00
2017,09,04,12,27,29.10
2017,09,04,12,28,29.10
2017,09,04,12,29,29.10
2017,09,04,12,30,29.20
2017,09,04,12,31,29.20
2017,09,04,12,32,29.30
2017,09,04,12,33,29.40
2017,09,04,12,34,29.50
2017,09,04,12,35,29.50
2017,09,04,12,36,29.40
2017,09,04,12,37,29.40
2017,09,04,12,38,29.40
2017,09,04,12,39,29.40
2017,09,04,12,40,29.30
2017,09,04,12,41,29.30
2017,09,04,12,42,29.40
2017,09,04,12,43,29.40
2017,09,04,12,44,29.50
2017,09,04,12,45,29.50
2017,09,04,12,46,29.50
2017,09,04,12,47,29.50
2017,09,04,12,48,29.70
2017,09,04,12,49,29.70
2017,09,04,12,50,29.70
2017,09,04,12,51,29.70
2017,09,04,12,52,29.70
2017,09,04,12,53,29.80
2017,09,04,12,54,29.80
2017,09,04,12,55,29.70
2017,09,04,12,56,29.70
2017,09,04,12,57,29.90
2017,09,04,12,58,30.00
2017,09,04,12,59,30.10
2017,09,04,13,00,30.30
2017,09,04,13,01,30.30
2017,09,04,13,02,30.30
2017,09,04,13,03,30.30
2017,09,04,13,04,30.30
2017,09,04,13,05,30.40
2017,09,04,13,06,30.50
2017,09,04,13,07,30.40
2017,09,04,13,08,30.40
2017,09,04,13,09,30.30
2017,09,04,13,10,30.20
2017,09,04,13,11,30.10
2017,09,04,13,12,30.20
2017,09,04,13,13,30.20
2017,09,04,13,14,30.40
2017,09,04,13,15,30.60
2017,09,04,13,16,30.80
2017,09,04,13,17,30.90
2017,09,04,13,18,30.80
2017,09,04,13,19,30.70
2017,09,04,13,20,30.70
2017,09,04,13,21,30.60
2017,09,04,13,22,30.70
2017,09,04,13,23,30.70
2017,09,04,13,24,30.70
2017,09,04,13,25,30.60
2017,09,04,13,26,30.60
2017,09,04,13,27,30.60
2017,09,04,13,28,30.70
2017,09,04,13,29,30.80
2017,09,04,13,30,30.80
2017,09,04,13,31,30.90
2017,09,04,13,32,31.00
2017,09,04,13,33,31.20
2017,09,04,13,34,31.30
2017,09,04,13,35,31.30
2017,09,04,13,36,31.30
2017,09,04,13,37,31.30
2017,09,04,13,38,31.40
2017,09,04,13,39,31.40
2017,09,04,13,40,31.40
2017,09,04,13,41,31.40
2017,09,04,13,42,31.40
2017,09,04,13,43,31.50
2017,09,04,13,44,31.60
2017,09,04,13,45,31.80
2017,09,04,13,46,32.00
2017,09,04,13,47,32.10
2017,09,04,13,48,32.20
2017,09,04,13,49,32.20
2017,09,04,13,50,32.10
2017,09,04,13,51,32.00
2017,09,04,13,52,31.90
2017,09,04,13,53,32.00
2017,09,04,13,54,32.00
2017,09,04,13,55,32.10
2017,09,04,13,56,32.20
2017,09,04,13,57,32.30
2017,09,04,13,58,32.40
2017,09,04,13,59,32.40
2017,09,04,14,00,32.30
2017,09,04,14,01,32.10
2017,09,04,14,02,32.00
2017,09,04,14,03,31.90
2017,09,04,14,04,31.80
2017,09,04,14,05,31.80
2017,09,04,14,06,31.90
2017,09,04,14,07,32.00
2017,09,04,14,08,32.20
2017,09,04,14,09,32.30
2017,09,04,14,10,32.30
2017,09,04,14,11,32.30
2017,09,04,14,12,32.30
2017,09,04,14,13,32.30
2017,09,04,14,14,32.30
2017,09,04,14,15,32.30
2017,09,04,14,16,32.30
2017,09,04,14,17,32.40
2017,09,04,14,18,32.60
2017,09,04,14,19,32.80
2017,09,04,14,20,32.80
2017,09,04,14,21,32.80
2017,09,04,14,22,32.90
2017,09,04,14,23,32.90
2017,09,04,14,24,32.90
2017,09,04,14,25,33.00
2017,09,04,14,26,33.00
2017,09,04,14,27,32.70
2017,09,04,14,28,32.40
2017,09,04,14,29,32.20
2017,09,04,14,30,31.90
2017,09,04,14,31,31.70
2017,09,04,14,32,31.50
2017,09,04,14,33,31.30
2017,09,04,14,34,31.10
2017,09,04,14,35,30.90
2017,09,04,14,36,30.80
2017,09,04,14,37,30.70
2017,09,04,14,38,30.60
2017,09,04,14,39,30.60
2017,09,04,14,40,30.50
2017,09,04,14,41,30.50
2017,09,04,14,42,30.60
2017,09,04,14,43,30.60
2017,09,04,14,44,30.70
2017,09,04,14,45,30.90
2017,09,04,14,46,31.00
2017,09,04,14,47,31.10
2017,09,04,14,48,31.30
2017,09,04,14,49,31.30
2017,09,04,14,50,31.30
2017,09,04,14,51,31.30
2017,09,04,14,52,31.30
2017,09,04,14,53,31.30
2017,09,04,14,54,31.10
2017,09,04,14,55,30.80
2017,09,04,14,56,30.60
2017,09,04,14,57,30.50
2017,09,04,14,58,30.50
2017,09,04,14,59,30.60
2017,09,04,15,00,30.70
2017,09,04,15,01,30.70
2017,09,04,15,02,30.80
2017,09,04,15,03,31.00
2017,09,04,15,04,31.20
2017,09,04,15,05,31.40
2017,09,04,15,06,31.50
2017,09,04,15,07,31.60
2017,09,04,15,08,31.70
2017,09,04,15,09,31.70
2017,09,04,15,10,31.70
2017,09,04,15,11,31.80
2017,09,04,15,12,31.80
2017,09,04,15,13,31.90
2017,09,04,15,14,32.00
2017,09,04,15,15,32.10
2017,09,04,15,16,32.00
2017,09,04,15,17,31.90
2017,09,04,15,18,31.90
2017,09,04,15,19,31.80
2017,09,04,15,20,31.70
2017,09,04,15,21,31.60
2017,09,04,15,22,31.50
2017,09,04,15,23,31.40
2017,09,04,15,24,31.40
2017,09,04,15,25,31.40
2017,09,04,15,26,31.40
2017,09,04,15,27,31.50
2017,09,04,15,28,31.50
2017,09,04,15,29,31.50
2017,09,04,15,30,31.50
2017,09,04,15,31,31.40
2017,09,04,15,32,31.40
2017,09,04,15,33,31.40
2017,09,04,15,34,31.50
2017,09,04,15,35,31.60
2017,09,04,15,36,31.60
2017,09,04,15,37,31.70
2017,09,04,15,38,31.70
2017,09,04,15,39,31.80
2017,09,04,15,40,31.80
2017,09,04,15,41,31.80
2017,09,04,15,42,31.90
2017,09,04,15,43,31.90
2017,09,04,15,44,31.90
2017,09,04,15,45,32.00
2017,09,04,15,46,32.00
2017,09,04,15,47,32.10
2017,09,04,15,48,32.10
2017,09,04,15,49,32.10
2017,09,04,15,50,32.10
2017,09,04,15,51,32.10
2017,09,04,15,52,32.00
2017,09,04,15,53,31.90
2017,09,04,15,54,31.90
2017,09,04,15,55,32.00
2017,09,04,15,56,32.00
2017,09,04,15,57,32.10
2017,09,04,15,58,32.10
2017,09,04,15,59,32.10
2017,09,04,16,00,32.00
2017,09,04,16,01,31.80
2017,09,04,16,02,31.70
2017,09,04,16,03,31.70
2017,09,04,16,04,31.60
2017,09,04,16,05,31.60
2017,09,04,16,06,31.60
2017,09,04,16,07,31.60
2017,09,04,16,08,31.60
2017,09,04,16,09,31.60
2017,09,04,16,10,31.60
2017,09,04,16,11,31.60
2017,09,04,16,12,31.60
2017,09,04,16,13,31.60
2017,09,04,16,14,31.60
2017,09,04,16,15,31.60
2017,09,04,16,16,31.50
2017,09,04,16,17,31.30
2017,09,04,16,18,31.20
2017,09,04,16,19,31.10
2017,09,04,16,20,31.10
2017,09,04,16,21,31.00
2017,09,04,16,22,31.00
2017,09,04,16,23,31.00
2017,09,04,16,24,30.90
2017,09,04,16,25,30.90
2017,09,04,16,26,30.90
2017,09,04,16,27,30.90
2017,09,04,16,28,30.90
2017,09,04,16,29,30.90
2017,09,04,16,30,30.80
2017,09,04,16,31,30.80
2017,09,04,16,32,30.80
2017,09,04,16,33,30.90
2017,09,04,16,34,30.90
2017,09,04,16,35,30.80
2017,09,04,16,36,30.80
2017,09,04,16,37,30.80
2017,09,04,16,38,30.80
2017,09,04,16,39,30.70
2017,09,04,16,40,30.70
2017,09,04,16,41,30.70
2017,09,04,16,42,30.60
2017,09,04,16,43,30.60
2017,09,04,16,44,30.50
2017,09,04,16,45,30.40
2017,09,04,16,46,30.40
2017,09,04,16,47,30.30
2017,09,04,16,48,30.40
2017,09,04,16,49,30.40
2017,09,04,16,50,30.40
2017,09,04,16,51,30.40
2017,09,04,16,52,30.40
2017,09,04,16,53,30.30
2017,09,04,16,54,30.30
2017,09,04,16,55,30.30
2017,09,04,16,56,30.20
2017,09,04,16,57,30.20
2017,09,04,16,58,30.10
2017,09,04,16,59,30.10
2017,09,04,17,00,30.10
2017,09,04,17,01,30.10
2017,09,04,17,02,30.00
2017,09,04,17,03,30.00
2017,09,04,17,04,29.90
2017,09,04,17,05,29.80
2017,09,04,17,06,29.80
2017,09,04,17,07,29.80
2017,09,04,17,08,29.70
2017,09,04,17,09,29.70
2017,09,04,17,10,29.70
2017,09,04,17,11,29.70
2017,09,04,17,12,29.70
2017,09,04,17,13,29.70
2017,09,04,17,14,29.70
2017,09,04,17,15,29.70
2017,09,04,17,16,29.70
2017,09,04,17,17,29.80
2017,09,04,17,18,29.80
2017,09,04,17,19,29.90